User: anonymous   Login
Location: Unspecified
(0.0000°N, 0.0000°E)
Time: 22:51:28
(UTC+00:00)
Language:

OV2-5 - Orbit

View from above orbital plane
View from above orbital plane
View from above satellite
View from above satellite

Ground track
Ground track

The orbit data is extracted from the following two-line orbital elements,

1 03428U 68081A   22228.18171331 -.00000076  00000-0  00000-0 0  9995
2 03428   2.0401 311.5471 0080831 357.8312  44.3854  1.01556859106833
Epoch (UTC): 16 August 2022 04:21:40
Eccentricity: 0.0080831
inclination: 2.0401°
perigee height: 35092 km
apogee height: 35768 km
right ascension of ascending node: 311.5471°
argument of perigee: 357.8312°
revolutions per day: 1.01556859
mean anomaly at epoch: 44.3854°
orbit number at epoch: 10683

The dashed part of the orbit path shows where the satellite is in the earth's shadow,  

DLR